Other Public Products
Issued by NWS Grand Forks, ND

Home | Current Version | Previous Version | Text Only | Print | Product List | Glossary On
Versions: 1 2 3 4 5 6 7 8 9 10 11 12 13 14 15 16 17 18 19 20 21 22 23 24 25 26 27 28 29 30 31 32 33 34 35 36 37 38 39 40 41 42 43 44 45 46 47 48 49 50
000
FPUS83 KFGF 020110
OPUFGF
PRAIRIE TO PINES WEATHER ROUNDUP
NATIONAL WEATHER SERVICE EASTERN NORTH DAKOTA/GRAND FORKS ND
800 PM CDT TUE SEP 01 2015

 **SATELLITE DATA USED TO AUGMENT SKY COVER AT AUTOMATED STATIONS**
 *****  WEATHER ACROSS EASTERN NORTH DAKOTA  *****

CITY           SKY/WX    TMP DP  RH WIND       PRES   REMARKS
GRAND FORKS    PTCLDY    79  55  43 SE6       29.81R
GRAND FORKS AF CLEAR     77  57  49 S7        29.82R
GRAND CITY NWS   N/A     77 N/A N/A S7          N/A
BUXTON         NOT AVBL
DEVILS LAKE    CLEAR     75  57  53 SE6       29.81R
FARGO          CLEAR     81  59  47 SE8       29.83S
WAHPETON ARPT  PTCLDY    79  68  69 S7        29.85R
$$

 *****  WEATHER ACROSS CENTRAL AND WESTERN NORTH DAKOTA  *****

CITY           SKY/WX    TMP DP  RH WIND       PRES   REMARKS
JAMESTOWN      PTCLDY    77  66  68 SE8       29.81S
BISMARCK       CLEAR     81  67  62 E6        29.76F
MINOT          CLEAR     82  54  37 S6        29.76R
MINOT AFB      CLEAR     84  55  37 S7        29.75R
GARRISON         N/A     80  62  54 SE5       29.78R
WILLISTON      CLEAR     86  40  19 W12       29.73S
DICKINSON      CLEAR     81  56  42 SE8       29.78S
HETTINGER      CLEAR     83  57  41 CALM      29.82R
$$

 *****  OTHER OBSERVATIONS NORTHEAST NORTH DAKOTA  *****

CITY           SKY/WX    TMP DP  RH WIND       PRES   REMARKS
WALHALLA       FAIR      79  57  47 MISG      29.80S
LANGDON        FAIR      79  52  38 S9        29.83S
CAVALIER       FAIR      79  55  44 S6        29.80R
GRAFTON        FAIR      75  59  57 S7        29.81S
CANDO          NOT AVBL
FORT TOTTEN    NOT AVBL
ROLLA            N/A     75  54  46 S10       29.82S
RUGBY          FAIR      79  55  44 SE8       29.78S
 ***** THE ABOVE OBSERVATIONS ARE NON NWS ARE NOT QUALITY
        CONTROLLED AND MAY MIS-REPORT RAIN FOR SNOW...
$$

 *****  OTHER OBSERVATIONS SOUTHEAST NORTH DAKOTA *****

CITY           SKY/WX    TMP DP  RH WIND       PRES   REMARKS
COOPERSTOWN    NOT AVBL
VALLEY CITY    FAIR      77  64  65 SE9       29.84S
OAKES            N/A     77  77 100 SE6       29.82S
GWINNER          N/A     79  75  89 SE8       29.83S
SHEYENNE NWR     N/A     79  72  78 SE3       29.95S
BUFFALO        NOT AVBL
WYNDMERE         N/A     79  72  78 SE6         N/A
 ***** THE ABOVE OBSERVATIONS ARE NON NWS ARE NOT QUALITY
       CONTROLLED AND MAY MIS-REPORT RAIN FOR SNOW...
$$

  *****  WEATHER ACROSS NORTHERN MINNESOTA  *****

CITY           SKY/WX    TMP DP  RH WIND       PRES   REMARKS
FLAG ISLAND    CLEAR     72  64  78 S3        29.85S
WARROAD        CLEAR     73  64  73 CALM      29.86S
ROSEAU         CLEAR     72  64  78 CALM      29.85S
HALLOCK        CLEAR     79  57  47 SE5       29.81R
THF RVR FALLS  CLEAR     75  55  50 SE6       29.85S
HALSTAD        NOT AVBL
FOSSTON        PTCLDY    75  48  38 SE3       29.88R
BAUDETTE       CLEAR     71  60  68 E3        29.87S
WASKISH        CLEAR     70  63  78 CALM      29.89S
CROOKSTON      CLEAR     75  57  53 SE6       29.84R
$$
  *****  WEATHER ACROSS CENTRAL AND WEST MINNESOTA  *****

CITY           SKY/WX    TMP DP  RH WIND       PRES   REMARKS
BEMIDJI        PTCLDY    73  52  47 E6        29.90S
PARK RAPIDS    MOCLDY    78  60  53 SE6       29.90R
WADENA         CLOUDY    75  64  69 SE3       29.90R
DETROIT LAKES  MOCLDY    77  61  57 SE7       29.90R
MOORHEAD       CLEAR     81  63  54 SE5       29.85R
FERGUS FALLS   MOCLDY    79  72  78 S9        29.86R
ELBOW LAKE     FAIR      76  72  86 SE6       29.88S
MORRIS MN      CLOUDY    75  72  88 SE5       29.87S
STAPLES        CLOUDY    75  66  73 CALM      29.89F
WHEATON        PTCLDY    73  70  88 SE8       29.86F
$$
  *****  WEATHER ELSEWHERE ACROSS MINNESOTA  *****

CITY           SKY/WX    TMP DP  RH WIND       PRES   REMARKS
DULUTH         PTCLDY    76  68  76 SW5       29.93R
INTRNTL FALLS  CLEAR     64  59  83 CALM      29.89S
ELY            MOCLDY    66  61  82 CALM      29.94R
CLOQUET        PTCLDY    73  68  83 CALM      29.93R
BRAINERD       CLOUDY    74  65  73 CALM      29.91R
HIBBING        MOCLDY    68  61  78 CALM      29.93R
ALEXANDRIA     CLOUDY    76  71  85 S6        29.92R
SAINT CLOUD    CLOUDY    77  74  90 S6        29.91S
MINNEAPOLIS    MOCLDY    84  72  67 SW7       29.90R
$$

  *****  WEATHER ACROSS SOUTH DAKOTA  *****

CITY           SKY/WX    TMP DP  RH WIND       PRES   REMARKS
SIOUX FALLS    CLOUDY    75  71  87 E5        29.87F
BROOKINGS      MOCLDY    72  61  68 SE15      29.89F
WATERTOWN      PTCLDY    75  69  81 S9        29.87R
HURON          CLEAR     76  69  79 SE8       29.82S
SISSETON         N/A     76  71  85 SE5       29.83S
ABERDEEN       CLEAR     75  68  78 SE5       29.82R
MITCHELL       CLEAR     75  71  87 SE5       29.83S
PIERRE         CLEAR     81  63  54 SE17      29.76R
MOBRIDGE       CLEAR     83  65  54 SE10      29.75R
RAPID CITY     CLEAR     78  61  55 NE5       29.85R
$$

  *****  SOME WEATHER IN NEARBY STATES *****

CITY           SKY/WX    TMP DP  RH WIND       PRES   REMARKS
GLASGOW MT     CLEAR     84  36  18 NW3       29.74S
GREAT FALLS MT SUNNY     81  29  15 W15       29.77S
CHEYENNE WY    MOCLDY    79  36  21 SW7       30.09S
SCOTTSBLUFF NE PTCLDY    81  55  40 E6        29.91S
OMAHA NE       MOCLDY    83  70  64 SE15      29.89S
DES MOINES IA  MOCLDY    82  70  66 S7        29.95S
DAVENPORT IA   CLEAR     79  71  76 S7        29.99S
CHICAGO IL     PTCLDY    83  72  69 S8        30.00R
EAU CLAIRE WI  MOCLDY    80  74  81 S3        29.91R
LA CROSSE WI   MOCLDY    82  73  74 S6        29.92R
$$

  *****  SOME NATIONAL WEATHER *****

CITY           SKY/WX    TMP DP  RH WIND       PRES   REMARKS
LA GUARDIA NY  CLEAR     78  65  63 S8        30.04R
RALEIGH NC     PTCLDY    74  69  85 E3        30.08R
ATLANTA GA     MOCLDY    81  68  64 CALM      30.10R
NEW ORLEANS LA CLOUDY    84  72  67 S8        30.02S
OKLAHOMA CITY  PTCLDY    84  63  49 S9        29.98R
ALBUQUERQUE NM MOCLDY    84  42  22 S14       30.13S
SALT LAKE CITY LGT RAIN  87  42  20 S31G41    29.88R
LOS ANGELES CA MOSUNNY   70  63  78 W12       29.89S
BOISE ID       PTSUNNY   86  42  21 NW7       29.75F
SEATTLE WA     RAIN      59  57  94 S9        29.81F FOG
$$

*** WEATHER ACROSS MANITOBA...SASKATCHEWAN AND ONTARIO ***
                ***ONTARIO***

CITY           SKY/WX    TMP DP  RH WIND       PRES   REMARKS
GERALDTON      PTCLDY    68  57  68 SW3       29.88R
THUNDER BAY    PTCLDY    66  61  82 W2        29.90R
SIOUX LOOKOUT  PTCLDY    61  55  82 CALM      29.89R
TORONTO        CLEAR     79  66  65 W6        30.03R
BIG TROUT LK   CLEAR     61  57  88 NE6       29.80R
PICKLE LAKE    PTCLDY    73  50  43 SW6       29.83R
DRYDEN         CLEAR     72  50  46 SW6       29.89S
KENORA         CLEAR     73  55  53 S8        29.88R
$$
                *** MANITOBA***

CITY           SKY/WX    TMP DP  RH WIND       PRES   REMARKS
BRANDON        PTCLDY    79  59  50 S7        29.75S
DAUPHIN        CLEAR     72  57  60 S6        29.71S
ISLAND LAKE    PTCLDY    70  61  73 E5        29.73R
PILOT MOUND      N/A     75  52  43 S9          N/A
THE PAS        MOCLDY    73  57  56 SE5       29.65R
THOMPSON       PTCLDY    64  57  77 E5        29.71S
WINNIPEG       CLEAR     77  57  50 S6        29.78S
LYNN LAKE      CLEAR     64  55  72 SE8       29.65F
CHURCHILL      CLOUDY    50  46  87 SE14      29.82R
GILLAM         PTCLDY    54  50  87 E2        29.81R
$$
                ***SASKATCHEWAN***

CITY           SKY/WX    TMP DP  RH WIND       PRES   REMARKS
ESTEVAN        MOCLDY    81  50  34 W7        29.72R
KINDERSLEY     MOCLDY    72  39  30 NE9       29.70S
LLOYDMINSTER   MOCLDY    64  39  39 NW7       29.70R
PRINCE ALBERT  PTCLDY    72  50  46 W8        29.65R
REGINA         MOCLDY    73  46  38 N3        29.74S


USA.gov is the U.S. government's official web portal to all federal, state and local government web resources and services.